Tracking 19242 objects as of 18-Sep-2018
HD Live streaming from Space Station
objects crossing your sky now

DIRECTV 1R

Track DIRECTV 1R now!
DIRECTV 1R is classified as:


NORAD ID: 25937
Int'l Code: 1999-056A
Perigee: 36,142.2 km
Apogee: 36,190.1 km
Inclination: 4.7 °
Period: 1,455.2 minutes
Semi major axis: 42537 km
RCS: 3.9811 m2 (large)
Launch date: October 10, 1999
Source: United States (US)
Launch site: SEA LAUNCH (SEAL)

First commercial launch by Sea Launch consortium (American, Russian, Ukrainian companies); 16 Ku-band; video channels directly to home-based dishes; anticipated 50 million homes in North America.
aabbcc
Your satellite tracking list
Your tracking list is empty




NASA's NSSDC Master Catalog

Two Line Element Set (TLE):
1 25937U 99056A   18260.52349406 +.00000054 +00000-0 +00000-0 0  9994
2 25937 004.6985 067.4904 0005634 183.3816 359.6214 00.98957948069215
Source of the keplerian elements: AFSPC